DECAYED

STARLINK-11125, 59753 (Decayed)

Orbit data source: Space-Track

STARLINK-11125, 59753 was a payload satellite owned by SpaceX/Seattle (US) in LEO that was launched on Tue, 14 May 2024 UTC via an FALCON 9 launch vehicle from the Air Force Western Test Range (AFWTR). Payload-class satellites include a variety of spacecraft equipped with specific instruments for various scientific and technological missions. These include communications satellites like Starlink; space stations such as the ISS; scientific satellites like the Hubble; Earth observation satellites from companies like Planet Labs, Umbra, and HawkEye 360; GPS; miniature CubeSats for education and research; and military/defense satellites.

Not visible in the next 10 days
Identifier
59753, 2024-091A
Orbit
Decayed
Country
Flag of USUS
Related business
Manufacturer
SpaceX/Seattle
Mission
Decayed Commercial Communications
Bus & Motor
STARLINK V2MD, Unknown motor
Mass
960 kg wet, ~910 kg dry
Launch date (UTC)
2024-05-14 (2 years ago)
Launch vehicle
FALCON 9
Launch site
Air Force Western Test Range (AFWTR)
Object type
Payload
Rocket body
Debris
Shape & HBR
Box + 2 Pan, 18.1 m
Radar Cross Section
36.964 m², Large (>1 m²)

Expand to show TLE details & history
Last TLE update: 1 year ago

TLE from 1 year ago
0 STARLINK-11125
1 59753U 24091A   25165.29068384  .19640483  11864-4  54873-2 0  9992
2 59753  53.1256  84.1941 0010776 222.6585 279.9827 16.26905617 63445
Epoch: 2025-06-14T06:58Z
TLE epoch observation values (Epoch: 2025-06-14T06:58:35.083Z)
Latitude
29.22118°
Longitude
-127.94154°
Altitude
201.224 km
Speed
7.79 km/s
True Right ascension
15h 58m 08s
True Declination
29° 03' 45"
Sunlit
Object was in full shadow at epoch
Visualization orbit readout
Latitude
Unknown
Longitude
Unknown
Altitude
Unknown
Speed
Unknown
Apparent Right ascension
Unknown
Apparent Declination
Unknown
Sunlit
N/A
Visualization observer readout
Local Sidereal Time
21:28:20
Azimuth
Unknown
Elevation
Unknown
Doppler factor
Unknown
Orbital elements
Apogee altitude
208.231 km
Perigee altitude
194.052 km
Semi-major axis
6,579.278 km
Eccentricity
0.00108
Inclination
53.1256°
RAAN
84.1941°
Arg. of periapsis
222.6585°
True anomaly
279.86106°
Mean anomaly
279.9827°
Eccentric anomaly
279.92188°
Mean motion
4.06702 °/min
Orbital period
88.52 mins
BSTAR
0.0054873
Loading maneuver chart data...
Computing Atmospheric mass density...
Loading historical data...
Loading historical data...
Loading historical data...
Loading historical data...
Loading historical data...
Loading historical data...
Loading historical data...

Documentation

Showing up to 5 results
|